Location: Mohawk View
(42.7837°N, 73.7885°W)
Time: 16:49:11
(UTC+00:00)

ATLAS CENTAUR R/B - Pass Details

Date: 17 June 2021
Orbit: 472 x 671 km, 64.6° (Epoch: 13 June)

Event Time Altitude Azimuth Distance (km) Brightness Sun altitude
Rises 02:25:55 0° 334° (NNW) 2,778 6.7 -15.3°
Reaches altitude 10° 02:28:21 10° 346° (NNW) 1,913 5.2 -15.6°
Maximum altitude 02:32:08 29° 47° (NE) 1,135 3.0 -16.0°
Enters shadow 02:34:48 17° 97° (E) 1,602 3.3 -16.3°
